This is the latest recevied weather packets stored in our database for station/object K1ABC. If no packets are shown the sender has not sent any weather packets the latest 10 day(s).
| Time | Temp. | Humidity | Pressure | Rain* | Wind** | Luminosity | Snow |
|---|---|---|---|---|---|---|---|
| 1778141079 | 10° C | 85% | 1006.3 hPa | 0 mm | - | - | - |
| 1778139999 | 10° C | 85% | 1006 hPa | 0 mm | - | - | - |
| 1778139798 | 10° C | 85% | 1005.9 hPa | 0 mm | - | - | - |
| 1778138111 | 10.56° C | 86% | 1005.9 hPa | 0 mm | - | - | - |
| 1778137910 | 10.56° C | 85% | 1006.1 hPa | 0 mm | - | - | - |
| 1778136220 | 10.56° C | 87% | 1005.7 hPa | 0 mm | - | - | - |
| 1778135895 | 10.56° C | 86% | 1005.5 hPa | 0 mm | - | - | - |
| 1778135081 | 11.11° C | 85% | 1005.6 hPa | 0 mm | - | - | - |
| 1778134885 | 11.11° C | 86% | 1005.6 hPa | 0 mm | - | - | - |
| 1778134683 | 11.11° C | 85% | 1005.5 hPa | 0 mm | - | - | - |
| 1778134115 | 11.11° C | 84% | 1005.6 hPa | 0 mm | - | - | - |
| 1778133292 | 11.11° C | 85% | 1005.9 hPa | 0 mm | - | - | - |
| 1778132838 | 11.11° C | 85% | 1006 hPa | 0 mm | - | - | - |
| 1778131899 | 11.11° C | 86% | 1005.9 hPa | 0 mm | - | - | - |
| 1778131577 | 11.11° C | 86% | 1006.1 hPa | 0 mm | - | - | - |
| 1778131373 | 11.11° C | 86% | 1005.9 hPa | 0 mm | - | - | - |
| 1778130800 | 11.67° C | 86% | 1005.7 hPa | 0 mm | - | - | - |
| 1778130244 | 11.67° C | 86% | 1005.8 hPa | 0 mm | - | - | - |
| 1778129295 | 12.22° C | 86% | 1005.6 hPa | 0 mm | - | - | - |
| 1778128849 | 12.22° C | 87% | 1005.6 hPa | 0 mm | - | - | - |
| 1778128410 | 12.78° C | 86% | 1005.7 hPa | 0 mm | - | - | - |
| 1778128210 | 12.78° C | 87% | 1005.8 hPa | 0 mm | - | - | - |
| 1778125748 | 13.89° C | 90% | 1005.1 hPa | 0 mm | - | - | - |
| 1778125421 | 14.44° C | 90% | 1005.1 hPa | 0 mm | - | - | - |
| 1778123729 | 15.56° C | 92% | 1005 hPa | 0 mm | - | - | - |
* Rain latest hour (hover to see other rain measurements)
** Current wind speed in m/s (hover to see current wind gust speed)